Madison, MN

8:17 AM CST on December 13, 2019 (GMT -0600)
Madison-Lac Qui Parle County

Weather History for KDXX - October, 2019

Change the Weather History Date:

Saturday, October 5, 2019

  Actual Average (KAQP) Record (KAQP)
Temperature  
Mean Temperature 54 °F -  
Max Temperature 60 °F 62 °F 87 °F (2011)
Min Temperature 48 °F 37 °F 26 °F (2001)
Degree Days  
Heating Degree Days 11    
Growing Degree Days 4 (Base 50)    
Moisture  
Dew Point 48 °F    
Average Humidity 83    
Maximum Humidity 100    
Minimum Humidity 63    
Precipitation  
Precipitation 0.05 in - - ()
Sea Level Pressure  
Sea Level Pressure 29.79 in    
Wind  
Wind Speed 14 mph (SW)    
Max Wind Speed 30 mph    
Max Gust Speed 44 mph    
Visibility 10 miles    
Events Rain , Thunderstorm    
Averages and records for this station are not official NWS values.
T = Trace of Precipitation, MM = Missing Value Source: NWS Daily Summary

Daily Weather History Graph

Daily Weather History Graph

Search for Another Location

Airport or City:

Astronomy

Oct. 05, 2019 Rise Set
Actual Time 7:27 AM CDT 6:58 PM CDT
Civil Twilight 6:58 AM CDT 7:27 PM CDT
Nautical Twilight 6:24 AM CDT 8:01 PM CDT
Astronomical Twilight 5:49 AM CDT 8:35 PM CDT
Moon 3:08 PM CDT (10/5) No Moon Set
Length of Visible Light 12h 29m
Length of Day
11h 30m
Waxing Crescent, 50% of the Moon is Illuminated
Oct 5
Waxing Crescent
Oct 13
Full
Oct 21
Last Quarter
Oct 27
New
Nov 4
First Quarter

Hourly Weather History & Observations

Time (CDT) Temp. Dew Point Humidity Pressure Visibility Wind Dir Wind Speed Gust Speed Precip Events Conditions
12:17 AM 48.2 °F 46.4 °F 93% 30.00 in 10.0 mi ESE 16.1 mph 24.2 mph N/A Thunderstorm Overcast
12:36 AM 48.2 °F 46.4 °F 93% 29.99 in 10.0 mi ESE 15.0 mph 19.6 mph N/A Thunderstorm Overcast
12:55 AM 48.2 °F 46.4 °F 93% 29.98 in 10.0 mi ESE 15.0 mph 20.7 mph N/A Thunderstorm Thunderstorm
12:56 AM 48.2 °F 46.4 °F 93% 29.98 in 10.0 mi ESE 13.8 mph 20.7 mph N/A Thunderstorm Thunderstorm
1:15 AM 48.2 °F 46.4 °F 93% 29.97 in 7.0 mi SE 12.7 mph 17.3 mph N/A Rain , Thunderstorm Heavy Thunderstorms and Rain
1:37 AM 48.2 °F 46.4 °F 93% 29.94 in 10.0 mi SE 17.3 mph 23.0 mph 0.02 in Rain , Thunderstorm Light Thunderstorms and Rain
1:56 AM 48.2 °F 46.4 °F 93% 29.92 in 10.0 mi SE 13.8 mph 21.9 mph N/A Rain Light Rain
2:15 AM 50.0 °F 48.2 °F 94% 29.92 in 10.0 mi SE 12.7 mph - N/A   Overcast
2:16 AM 50.0 °F 48.2 °F 94% 29.93 in 10.0 mi SE 11.5 mph - N/A   Overcast
2:35 AM 50.0 °F 48.2 °F 94% 29.95 in 7.0 mi SSE 8.1 mph - N/A Rain Rain
2:36 AM 50.0 °F 48.2 °F 94% 29.95 in 7.0 mi SSE 8.1 mph - N/A Rain Heavy Rain
3:16 AM 50.0 °F 48.2 °F 94% 29.93 in 7.0 mi SSE 8.1 mph - 0.02 in Rain Rain
3:35 AM 50.0 °F 48.2 °F 94% 29.92 in 10.0 mi SE 9.2 mph - 0.02 in Rain Light Rain
3:55 AM 50.0 °F 48.2 °F 94% 29.89 in 10.0 mi SE 9.2 mph - 0.02 in   Overcast
3:56 AM 50.0 °F 48.2 °F 94% 29.89 in 10.0 mi SE 9.2 mph - N/A   Overcast
4:15 AM 51.8 °F 50.0 °F 94% 29.86 in 10.0 mi SE 12.7 mph - N/A Rain Light Rain
4:19 AM 51.8 °F 50.0 °F 94% 29.85 in 10.0 mi SE 15.0 mph - 0.01 in Rain Light Rain
4:38 AM 51.8 °F 50.0 °F 94% 29.83 in 10.0 mi SE 15.0 mph - 0.01 in   Overcast
4:55 AM 51.8 °F 50.0 °F 94% 29.83 in 10.0 mi SE 12.7 mph 19.6 mph 0.01 in   Overcast
5:15 AM 51.8 °F 50.0 °F 94% 29.84 in 10.0 mi SSE 11.5 mph 19.6 mph N/A   Overcast
5:16 AM 51.8 °F 50.0 °F 94% 29.84 in 10.0 mi SSE 12.7 mph 19.6 mph N/A   Overcast
5:35 AM 51.8 °F 50.0 °F 94% 29.85 in 10.0 mi SSE 12.7 mph 18.4 mph N/A   Overcast
5:58 AM 51.8 °F 50.0 °F 94% 29.82 in 10.0 mi SSE 9.2 mph - N/A   Overcast
6:17 AM 51.8 °F 50.0 °F 94% 29.80 in 10.0 mi SE 9.2 mph - N/A   Overcast
6:36 AM 51.8 °F 50.0 °F 94% 29.79 in 10.0 mi SE 11.5 mph - N/A   Overcast
6:55 AM 51.8 °F 51.8 °F 100% 29.78 in 10.0 mi SE 10.4 mph 18.4 mph N/A   Overcast
6:56 AM 51.8 °F 51.8 °F 100% 29.78 in 10.0 mi SE 11.5 mph 18.4 mph N/A   Overcast
7:15 AM 51.8 °F 51.8 °F 100% 29.78 in 10.0 mi SE 13.8 mph - N/A   Overcast
7:20 AM 51.8 °F 51.8 °F 100% 29.78 in 10.0 mi SE 16.1 mph 20.7 mph N/A   Overcast
7:37 AM 51.8 °F 51.8 °F 100% 29.77 in 10.0 mi SE 13.8 mph 20.7 mph N/A   Overcast
7:55 AM 51.8 °F 51.8 °F 100% 29.76 in 10.0 mi SE 16.1 mph 21.9 mph N/A   Overcast
8:15 AM 53.6 °F 51.8 °F 94% 29.74 in 10.0 mi SE 13.8 mph 20.7 mph N/A   Overcast
8:16 AM 53.6 °F 51.8 °F 94% 29.73 in 10.0 mi SE 15.0 mph 20.7 mph N/A   Overcast
8:35 AM 53.6 °F 51.8 °F 94% 29.74 in 10.0 mi SSE 11.5 mph 17.3 mph N/A   Overcast
8:36 AM 53.6 °F 51.8 °F 94% 29.74 in 10.0 mi SSE 12.7 mph - N/A   Overcast
8:59 AM 53.6 °F 51.8 °F 94% 29.72 in 10.0 mi SSE 10.4 mph 18.4 mph N/A   Overcast
9:17 AM 53.6 °F 51.8 °F 94% 29.71 in 10.0 mi SSE 9.2 mph 18.4 mph N/A   Overcast
9:36 AM 53.6 °F 51.8 °F 94% 29.70 in 10.0 mi SSE 10.4 mph - N/A   Overcast
9:55 AM 53.6 °F 51.8 °F 94% 29.71 in 10.0 mi South 8.1 mph - N/A   Overcast
10:15 AM 55.4 °F 53.6 °F 94% 29.69 in 10.0 mi SSE 8.1 mph - N/A   Overcast
10:19 AM 55.4 °F 53.6 °F 94% 29.69 in 10.0 mi SSE 8.1 mph - N/A   Overcast
10:37 AM 55.4 °F 53.6 °F 94% 29.68 in 10.0 mi South 8.1 mph - N/A   Overcast
10:56 AM 57.2 °F 53.6 °F 88% 29.67 in 10.0 mi South 9.2 mph - N/A   Overcast
11:15 AM 57.2 °F 53.6 °F 88% 29.66 in 10.0 mi SSW 11.5 mph 16.1 mph N/A   Overcast
11:16 AM 57.2 °F 53.6 °F 88% 29.66 in 10.0 mi SSW 11.5 mph 16.1 mph N/A   Overcast
11:35 AM 60.8 °F 55.4 °F 82% 29.65 in 10.0 mi SSW 12.7 mph 18.4 mph N/A   Mostly Cloudy
11:36 AM 60.8 °F 53.6 °F 77% 29.65 in 10.0 mi SSW 12.7 mph 18.4 mph N/A   Overcast
11:59 AM 60.8 °F 53.6 °F 77% 29.64 in 10.0 mi WSW 17.3 mph 23.0 mph N/A   Overcast
12:16 PM 60.8 °F 53.6 °F 77% 29.64 in 10.0 mi WSW 15.0 mph 21.9 mph N/A   Overcast
12:35 PM 60.8 °F 53.6 °F 77% 29.64 in 10.0 mi West 13.8 mph 23.0 mph N/A   Overcast
12:36 PM 60.8 °F 53.6 °F 77% 29.64 in 10.0 mi West 16.1 mph 23.0 mph N/A   Overcast
12:55 PM 60.8 °F 51.8 °F 72% 29.64 in 10.0 mi WSW 20.7 mph 31.1 mph N/A   Overcast
12:56 PM 60.8 °F 51.8 °F 72% 29.64 in 10.0 mi WSW 18.4 mph 31.1 mph N/A   Overcast
1:15 PM 60.8 °F 51.8 °F 72% 29.64 in 10.0 mi West 28.8 mph 36.8 mph N/A   Overcast
1:19 PM 60.8 °F 50.0 °F 68% 29.65 in 10.0 mi West 25.3 mph 36.8 mph N/A   Overcast
1:38 PM 57.2 °F 48.2 °F 72% 29.66 in 10.0 mi West 25.3 mph 35.7 mph N/A   Overcast
1:55 PM 59.0 °F 48.2 °F 67% 29.66 in 10.0 mi West 18.4 mph 32.2 mph N/A   Overcast
2:15 PM 60.8 °F 48.2 °F 63% 29.65 in 10.0 mi West 23.0 mph 32.2 mph N/A   Mostly Cloudy
2:16 PM 60.8 °F 48.2 °F 63% 29.65 in 10.0 mi West 25.3 mph 34.5 mph N/A   Mostly Cloudy
2:35 PM 59.0 °F 48.2 °F 67% 29.64 in 10.0 mi West 29.9 mph 36.8 mph N/A   Scattered Clouds
2:58 PM 59.0 °F 48.2 °F 67% 29.66 in 10.0 mi West 23.0 mph 32.2 mph N/A   Mostly Cloudy
3:17 PM 57.2 °F 50.0 °F 77% 29.67 in 4.0 mi West 24.2 mph 34.5 mph N/A Rain Rain
3:36 PM 57.2 °F 48.2 °F 72% 29.69 in 10.0 mi WNW 24.2 mph 34.5 mph N/A   Overcast
3:55 PM 57.2 °F 46.4 °F 67% 29.70 in 10.0 mi West 23.0 mph 34.5 mph N/A   Overcast
3:56 PM 57.2 °F 46.4 °F 67% 29.70 in 10.0 mi West 24.2 mph 34.5 mph N/A   Overcast
4:15 PM 57.2 °F 46.4 °F 67% 29.72 in 10.0 mi West 28.8 mph 33.4 mph N/A   Overcast
4:37 PM 57.2 °F 44.6 °F 63% 29.73 in 10.0 mi West 23.0 mph 43.7 mph N/A   Mostly Cloudy
4:55 PM 57.2 °F 46.4 °F 67% 29.74 in 10.0 mi West 21.9 mph 35.7 mph N/A   Overcast
5:15 PM 53.6 °F 46.4 °F 77% 29.76 in 10.0 mi WNW 26.5 mph 32.2 mph N/A   Overcast
5:16 PM 53.6 °F 46.4 °F 77% 29.76 in 10.0 mi WNW 26.5 mph 32.2 mph N/A   Overcast
5:35 PM 55.4 °F 46.4 °F 72% 29.77 in 10.0 mi WNW 24.2 mph 36.8 mph N/A   Overcast
5:36 PM 55.4 °F 46.4 °F 72% 29.77 in 10.0 mi WNW 21.9 mph 36.8 mph N/A   Overcast
5:59 PM 55.4 °F 46.4 °F 72% 29.79 in 10.0 mi WNW 24.2 mph 32.2 mph N/A   Overcast
6:16 PM 55.4 °F 46.4 °F 72% 29.79 in 10.0 mi WNW 20.7 mph 29.9 mph N/A   Overcast
6:36 PM 55.4 °F 46.4 °F 72% 29.80 in 10.0 mi WNW 18.4 mph 24.2 mph N/A   Scattered Clouds
6:55 PM 55.4 °F 46.4 °F 72% 29.80 in 10.0 mi WNW 13.8 mph 23.0 mph N/A   Clear
6:56 PM 55.4 °F 46.4 °F 72% 29.80 in 10.0 mi WNW 15.0 mph 23.0 mph N/A   Clear
7:15 PM 53.6 °F 46.4 °F 77% 29.81 in 10.0 mi WNW 12.7 mph 20.7 mph N/A   Clear
7:19 PM 53.6 °F 46.4 °F 77% 29.81 in 10.0 mi WNW 11.5 mph - N/A   Clear
7:37 PM 53.6 °F 46.4 °F 77% 29.82 in 10.0 mi West 6.9 mph - N/A   Clear
7:56 PM 51.8 °F 46.4 °F 82% 29.82 in 10.0 mi West 8.1 mph - N/A   Clear
8:15 PM 51.8 °F 44.6 °F 76% 29.82 in 10.0 mi West 8.1 mph - N/A   Clear
8:16 PM 51.8 °F 44.6 °F 76% 29.82 in 10.0 mi West 8.1 mph - N/A   Clear
8:35 PM 51.8 °F 44.6 °F 76% 29.82 in 10.0 mi West 8.1 mph - N/A   Clear
8:36 PM 51.8 °F 44.6 °F 76% 29.82 in 10.0 mi West 8.1 mph - N/A   Clear
8:58 PM 51.8 °F 44.6 °F 76% 29.83 in 10.0 mi West 6.9 mph - N/A   Clear
9:16 PM 51.8 °F 44.6 °F 76% 29.84 in 10.0 mi WSW 9.2 mph - N/A   Clear
9:35 PM 50.0 °F 44.6 °F 82% 29.85 in 10.0 mi West 6.9 mph - N/A   Clear
9:55 PM 51.8 °F 44.6 °F 76% 29.85 in 10.0 mi WSW 9.2 mph - N/A   Scattered Clouds
9:56 PM 51.8 °F 44.6 °F 76% 29.85 in 10.0 mi WSW 9.2 mph - N/A   Scattered Clouds
10:15 PM 51.8 °F 44.6 °F 76% 29.85 in 10.0 mi West 10.4 mph - N/A   Clear
10:38 PM 51.8 °F 42.8 °F 71% 29.86 in 10.0 mi West 8.1 mph - N/A   Clear
10:55 PM 51.8 °F 42.8 °F 71% 29.86 in 10.0 mi West 9.2 mph - N/A   Clear
11:15 PM 51.8 °F 42.8 °F 71% 29.86 in 10.0 mi West 10.4 mph - N/A   Clear
11:16 PM 51.8 °F 42.8 °F 71% 29.86 in 10.0 mi West 10.4 mph - N/A   Clear
11:35 PM 51.8 °F 42.8 °F 71% 29.87 in 10.0 mi WSW 10.4 mph - N/A   Clear
11:36 PM 51.8 °F 42.8 °F 71% 29.87 in 10.0 mi WSW 11.5 mph - N/A   Clear
11:58 PM 51.8 °F 42.8 °F 71% 29.87 in 10.0 mi WSW 9.2 mph - N/A   Clear